Time,TemperatureF,DewpointF,PressureIn,WindDirection,WindDirectionDegrees,WindSpeedMPH,WindSpeedGustMPH,Humidity,HourlyPrecipIn,Conditions,Clouds,dailyrainin,SoftwareType,DateUTC
2013-03-26 00:00:00,22.9,12.5,30.33,SE,124,1.0,1.0,64,0.00,,,0.00,Wunderground v.1.15,2013-03-26 06:00:00,
2013-03-26 00:05:00,22.9,13.2,30.33,NNW,333,1.0,1.0,66,0.00,,,0.00,Wunderground v.1.15,2013-03-26 06:05:00,
2013-03-26 00:15:00,23.4,12.6,30.32,NNW,338,1.0,1.0,63,0.00,,,0.00,Wunderground v.1.15,2013-03-26 06:15:00,
2013-03-26 00:25:00,24.3,12.0,30.32,West,267,1.0,1.0,59,0.00,,,0.00,Wunderground v.1.15,2013-03-26 06:25:00,
2013-03-26 00:30:00,24.6,11.9,30.33,NW,323,1.0,3.0,58,0.00,,,0.00,Wunderground v.1.15,2013-03-26 06:30:00,
2013-03-26 00:35:00,24.5,12.2,30.32,WNW,283,2.0,3.0,59,0.00,,,0.00,Wunderground v.1.15,2013-03-26 06:35:00,
2013-03-26 00:40:00,24.4,12.1,30.32,NW,312,2.0,2.0,59,0.00,,,0.00,Wunderground v.1.15,2013-03-26 06:40:00,
2013-03-26 00:45:00,24.4,11.3,30.32,WNW,293,1.0,2.0,57,0.00,,,0.00,Wunderground v.1.15,2013-03-26 06:45:00,
2013-03-26 00:50:00,24.5,11.4,30.32,West,269,1.0,1.0,57,0.00,,,0.00,Wunderground v.1.15,2013-03-26 06:50:00,
2013-03-26 00:55:00,24.3,12.0,30.32,NE,46,0.0,1.0,59,0.00,,,0.00,Wunderground v.1.15,2013-03-26 06:55:00,
2013-03-26 01:00:00,23.6,12.5,30.31,NE,52,0.0,0.0,62,0.00,,,0.00,Wunderground v.1.15,2013-03-26 07:00:00,
2013-03-26 01:10:00,22.7,12.0,30.31,ENE,68,0.0,0.0,63,0.00,,,0.00,Wunderground v.1.15,2013-03-26 07:10:00,
2013-03-26 01:15:00,23.1,11.3,30.31,WNW,290,1.0,1.0,60,0.00,,,0.00,Wunderground v.1.15,2013-03-26 07:15:00,
2013-03-26 01:20:00,23.3,11.4,30.31,West,266,1.0,1.0,60,0.00,,,0.00,Wunderground v.1.15,2013-03-26 07:20:00,
2013-03-26 01:25:00,23.1,11.6,30.31,West,264,1.0,1.0,61,0.00,,,0.00,Wunderground v.1.15,2013-03-26 07:25:00,
2013-03-26 01:30:00,23.0,11.5,30.31,WSW,239,1.0,1.0,61,0.00,,,0.00,Wunderground v.1.15,2013-03-26 07:30:00,
2013-03-26 01:35:00,22.5,12.1,30.30,WSW,256,1.0,1.0,64,0.00,,,0.00,Wunderground v.1.15,2013-03-26 07:35:00,
2013-03-26 01:40:00,22.2,12.2,30.30,West,281,1.0,2.0,65,0.00,,,0.00,Wunderground v.1.15,2013-03-26 07:40:00,
2013-03-26 01:50:00,22.0,11.7,30.30,SW,229,0.0,0.0,64,0.00,,,0.00,Wunderground v.1.15,2013-03-26 07:50:00,
2013-03-26 01:55:00,22.3,11.6,30.30,NW,311,0.0,1.0,63,0.00,,,0.00,Wunderground v.1.15,2013-03-26 07:55:00,
2013-03-26 02:00:00,22.8,11.3,30.30,NE,49,1.0,1.0,61,0.00,,,0.00,Wunderground v.1.15,2013-03-26 08:00:00,
2013-03-26 02:05:00,23.1,11.3,30.29,West,266,1.0,1.0,60,0.00,,,0.00,Wunderground v.1.15,2013-03-26 08:05:00,
2013-03-26 02:15:00,22.9,11.1,30.29,WNW,295,1.0,3.0,60,0.00,,,0.00,Wunderground v.1.15,2013-03-26 08:15:00,
2013-03-26 02:25:00,23.4,11.2,30.28,West,269,1.0,1.0,59,0.00,,,0.00,Wunderground v.1.15,2013-03-26 08:25:00,
2013-03-26 02:30:00,23.3,11.1,30.28,ENE,72,1.0,1.0,59,0.00,,,0.00,Wunderground v.1.15,2013-03-26 08:30:00,
2013-03-26 02:35:00,23.3,11.1,30.28,WNW,285,1.0,1.0,59,0.00,,,0.00,Wunderground v.1.15,2013-03-26 08:35:00,
2013-03-26 02:40:00,23.3,11.4,30.27,WNW,295,1.0,3.0,60,0.00,,,0.00,Wunderground v.1.15,2013-03-26 08:40:00,
2013-03-26 02:45:00,23.3,11.1,30.27,NW,319,1.0,3.0,59,0.00,,,0.00,Wunderground v.1.15,2013-03-26 08:45:00,
2013-03-26 02:50:00,23.3,11.1,30.27,West,262,1.0,1.0,59,0.00,,,0.00,Wunderground v.1.15,2013-03-26 08:50:00,
2013-03-26 02:55:00,23.2,11.0,30.27,WSW,255,1.0,1.0,59,0.00,,,0.00,Wunderground v.1.15,2013-03-26 08:55:00,
2013-03-26 03:00:00,23.1,11.3,30.26,WNW,283,1.0,1.0,60,0.00,,,0.00,Wunderground v.1.15,2013-03-26 09:00:00,
2013-03-26 03:10:00,23.3,11.1,30.26,NW,320,1.0,3.0,59,0.00,,,0.00,Wunderground v.1.15,2013-03-26 09:10:00,
2013-03-26 03:20:00,23.0,11.2,30.26,WNW,288,2.0,2.0,60,0.00,,,0.00,Wunderground v.1.15,2013-03-26 09:20:00,
2013-03-26 03:25:00,23.0,11.2,30.26,NW,319,1.0,2.0,60,0.00,,,0.00,Wunderground v.1.15,2013-03-26 09:25:00,
2013-03-26 03:30:00,23.2,11.0,30.26,WSW,248,1.0,1.0,59,0.00,,,0.00,Wunderground v.1.15,2013-03-26 09:30:00,
2013-03-26 03:35:00,23.3,11.1,30.25,NNE,30,1.0,3.0,59,0.00,,,0.00,Wunderground v.1.15,2013-03-26 09:35:00,
2013-03-26 03:45:00,23.7,10.7,30.25,NW,307,2.0,5.0,57,0.00,,,0.00,Wunderground v.1.15,2013-03-26 09:45:00,
2013-03-26 03:50:00,23.7,10.7,30.25,WSW,255,1.0,1.0,57,0.00,,,0.00,Wunderground v.1.15,2013-03-26 09:50:00,
2013-03-26 03:55:00,22.7,11.6,30.24,SW,236,1.0,1.0,62,0.00,,,0.00,Wunderground v.1.15,2013-03-26 09:55:00,
2013-03-26 04:00:00,21.9,11.6,30.24,WSW,246,0.0,0.0,64,0.00,,,0.00,Wunderground v.1.15,2013-03-26 10:00:00,
2013-03-26 04:05:00,21.7,11.0,30.24,North,356,1.0,1.0,63,0.00,,,0.00,Wunderground v.1.15,2013-03-26 10:05:00,
2013-03-26 04:15:00,21.8,11.5,30.24,West,270,1.0,2.0,64,0.00,,,0.00,Wunderground v.1.15,2013-03-26 10:15:00,
2013-03-26 04:20:00,22.7,11.3,30.24,West,271,2.0,2.0,61,0.00,,,0.00,Wunderground v.1.15,2013-03-26 10:20:00,
2013-03-26 04:25:00,23.1,11.6,30.23,NE,56,2.0,2.0,61,0.00,,,0.00,Wunderground v.1.15,2013-03-26 10:25:00,
2013-03-26 04:35:00,22.1,11.8,30.23,NE,44,1.0,2.0,64,0.00,,,0.00,Wunderground v.1.15,2013-03-26 10:35:00,
2013-03-26 04:40:00,21.1,12.2,30.23,North,352,0.0,1.0,68,0.00,,,0.00,Wunderground v.1.15,2013-03-26 10:40:00,
2013-03-26 04:45:00,20.5,12.3,30.23,ENE,70,0.0,2.0,70,0.00,,,0.00,Wunderground v.1.15,2013-03-26 10:45:00,
2013-03-26 04:50:00,20.1,12.2,30.23,SSE,158,1.0,1.0,71,0.00,,,0.00,Wunderground v.1.15,2013-03-26 10:50:00,
2013-03-26 04:55:00,19.8,12.2,30.23,East,86,1.0,1.0,72,0.00,,,0.00,Wunderground v.1.15,2013-03-26 10:55:00,
2013-03-26 05:00:00,19.5,11.9,30.22,East,82,0.0,1.0,72,0.00,,,0.00,Wunderground v.1.15,2013-03-26 11:00:00,
2013-03-26 05:05:00,19.6,12.7,30.22,ENE,64,0.0,1.0,74,0.00,,,0.00,Wunderground v.1.15,2013-03-26 11:05:00,
2013-03-26 05:15:00,19.6,12.7,30.22,SSW,212,0.0,0.0,74,0.00,,,0.00,Wunderground v.1.15,2013-03-26 11:15:00,
2013-03-26 05:20:00,19.5,12.9,30.21,East,89,0.0,1.0,75,0.00,,,0.00,Wunderground v.1.15,2013-03-26 11:20:00,
2013-03-26 05:25:00,19.8,12.8,30.21,South,170,0.0,1.0,74,0.00,,,0.00,Wunderground v.1.15,2013-03-26 11:25:00,
2013-03-26 05:30:00,19.9,13.3,30.20,South,170,0.0,0.0,75,0.00,,,0.00,Wunderground v.1.15,2013-03-26 11:30:00,
2013-03-26 05:35:00,19.8,13.2,30.20,South,170,0.0,0.0,75,0.00,,,0.00,Wunderground v.1.15,2013-03-26 11:35:00,
2013-03-26 05:40:00,19.8,13.5,30.20,ESE,118,0.0,0.0,76,0.00,,,0.00,Wunderground v.1.15,2013-03-26 11:40:00,
2013-03-26 05:50:00,19.8,13.2,30.20,East,84,0.0,0.0,75,0.00,,,0.00,Wunderground v.1.15,2013-03-26 11:50:00,
2013-03-26 05:55:00,19.9,13.3,30.20,North,356,0.0,0.0,75,0.00,,,0.00,Wunderground v.1.15,2013-03-26 11:55:00,
2013-03-26 06:00:00,20.0,13.3,30.20,North,356,0.0,0.0,75,0.00,,,0.00,Wunderground v.1.15,2013-03-26 12:00:00,
2013-03-26 06:05:00,20.0,13.6,30.20,SSE,158,0.0,1.0,76,0.00,,,0.00,Wunderground v.1.15,2013-03-26 12:05:00,
2013-03-26 06:15:00,20.1,13.7,30.20,ENE,74,1.0,1.0,76,0.00,,,0.00,Wunderground v.1.15,2013-03-26 12:15:00,
2013-03-26 06:20:00,20.3,13.9,30.19,SSE,155,1.0,1.0,76,0.00,,,0.00,Wunderground v.1.15,2013-03-26 12:20:00,
2013-03-26 06:30:00,20.3,13.9,30.19,SSE,159,0.0,0.0,76,0.00,,,0.00,Wunderground v.1.15,2013-03-26 12:30:00,
2013-03-26 06:35:00,20.3,13.9,30.19,SSE,159,0.0,0.0,76,0.00,,,0.00,Wunderground v.1.15,2013-03-26 12:35:00,
2013-03-26 06:40:00,20.4,13.7,30.19,ESE,115,0.0,0.0,75,0.00,,,0.00,Wunderground v.1.15,2013-03-26 12:40:00,
2013-03-26 06:50:00,20.5,14.1,30.19,ESE,117,0.0,0.0,76,0.00,,,0.00,Wunderground v.1.15,2013-03-26 12:50:00,
2013-03-26 06:55:00,20.6,14.2,30.19,WSW,237,0.0,0.0,76,0.00,,,0.00,Wunderground v.1.15,2013-03-26 12:55:00,
2013-03-26 07:00:00,20.7,14.6,30.20,East,83,0.0,0.0,77,0.00,,,0.00,Wunderground v.1.15,2013-03-26 13:00:00,
2013-03-26 07:10:00,21.2,14.8,30.20,North,9,0.0,1.0,76,0.00,,,0.00,Wunderground v.1.15,2013-03-26 13:10:00,
2013-03-26 07:15:00,21.6,14.6,30.19,ENE,63,0.0,1.0,74,0.00,,,0.00,Wunderground v.1.15,2013-03-26 13:15:00,
2013-03-26 07:20:00,21.8,15.4,30.19,SW,236,0.0,0.0,76,0.00,,,0.00,Wunderground v.1.15,2013-03-26 13:20:00,
2013-03-26 07:25:00,21.9,15.5,30.19,SW,236,0.0,0.0,76,0.00,,,0.00,Wunderground v.1.15,2013-03-26 13:25:00,
2013-03-26 07:30:00,21.8,15.1,30.19,SW,236,0.0,0.0,75,0.00,,,0.00,Wunderground v.1.15,2013-03-26 13:30:00,
2013-03-26 07:35:00,22.2,15.8,30.18,SW,233,0.0,1.0,76,0.00,,,0.00,Wunderground v.1.15,2013-03-26 13:35:00,
2013-03-26 07:45:00,23.3,15.9,30.18,SE,141,1.0,1.0,73,0.00,,,0.00,Wunderground v.1.15,2013-03-26 13:45:00,
2013-03-26 07:50:00,24.2,15.8,30.18,East,101,1.0,1.0,70,0.00,,,0.00,Wunderground v.1.15,2013-03-26 13:50:00,
2013-03-26 08:00:00,25.7,16.9,30.18,SSW,194,1.0,1.0,69,0.00,,,0.00,Wunderground v.1.15,2013-03-26 14:00:00,
2013-03-26 08:05:00,26.2,16.7,30.17,SE,129,0.0,1.0,67,0.00,,,0.00,Wunderground v.1.15,2013-03-26 14:05:00,
2013-03-26 08:15:00,28.3,17.3,30.17,NNW,342,0.0,1.0,63,0.00,,,0.00,Wunderground v.1.15,2013-03-26 14:15:00,
2013-03-26 08:25:00,30.7,17.7,30.16,East,89,0.0,1.0,58,0.00,,,0.00,Wunderground v.1.15,2013-03-26 14:25:00,
2013-03-26 08:35:00,31.7,17.8,30.16,NE,56,1.0,1.0,56,0.00,,,0.00,Wunderground v.1.15,2013-03-26 14:35:00,
2013-03-26 08:40:00,32.5,17.7,30.16,SE,132,1.0,1.0,54,0.00,,,0.00,Wunderground v.1.15,2013-03-26 14:40:00,
2013-03-26 08:45:00,32.6,16.9,30.16,SSE,160,1.0,2.0,52,0.00,,,0.00,Wunderground v.1.15,2013-03-26 14:45:00,
2013-03-26 08:50:00,32.0,17.6,30.16,SE,132,1.0,1.0,55,0.00,,,0.00,Wunderground v.1.15,2013-03-26 14:50:00,
2013-03-26 08:55:00,31.4,16.7,30.16,ESE,110,0.0,1.0,54,0.00,,,0.00,Wunderground v.1.15,2013-03-26 14:55:00,
2013-03-26 09:00:00,30.7,16.4,30.16,ENE,72,0.0,0.0,55,0.00,,,0.00,Wunderground v.1.15,2013-03-26 15:00:00,
2013-03-26 09:05:00,30.4,17.0,30.15,SSE,162,0.0,0.0,57,0.00,,,0.00,Wunderground v.1.15,2013-03-26 15:05:00,
2013-03-26 09:15:00,30.0,16.2,30.15,ENE,70,1.0,2.0,56,0.00,,,0.00,Wunderground v.1.15,2013-03-26 15:15:00,
2013-03-26 09:20:00,30.2,17.2,30.15,SSE,153,1.0,1.0,58,0.00,,,0.00,Wunderground v.1.15,2013-03-26 15:20:00,
2013-03-26 09:25:00,31.6,18.1,30.15,SE,132,1.0,2.0,57,0.00,,,0.00,Wunderground v.1.15,2013-03-26 15:25:00,
2013-03-26 09:30:00,32.4,17.2,30.15,SE,128,1.0,2.0,53,0.00,,,0.00,Wunderground v.1.15,2013-03-26 15:30:00,
2013-03-26 09:40:00,33.3,15.7,30.15,SE,138,1.0,1.0,48,0.00,,,0.00,Wunderground v.1.15,2013-03-26 15:40:00,
2013-03-26 09:45:00,33.6,14.5,30.15,SE,139,1.0,2.0,45,0.00,,,0.00,Wunderground v.1.15,2013-03-26 15:45:00,
2013-03-26 09:55:00,34.3,16.6,30.14,East,79,1.0,1.0,48,0.00,,,0.00,Wunderground v.1.15,2013-03-26 15:55:00,
2013-03-26 10:00:00,34.9,16.7,30.14,ENE,58,1.0,1.0,47,0.00,,,0.00,Wunderground v.1.15,2013-03-26 16:00:00,
2013-03-26 10:05:00,35.2,16.0,30.13,ENE,60,2.0,2.0,45,0.00,,,0.00,Wunderground v.1.15,2013-03-26 16:05:00,
2013-03-26 10:15:00,35.2,17.4,30.13,ENE,78,2.0,2.0,48,0.00,,,0.00,Wunderground v.1.15,2013-03-26 16:15:00,
2013-03-26 10:20:00,36.0,17.7,30.12,NE,52,1.0,1.0,47,0.00,,,0.00,Wunderground v.1.15,2013-03-26 16:20:00,
2013-03-26 10:25:00,36.7,17.3,30.11,SE,146,2.0,3.0,45,0.00,,,0.00,Wunderground v.1.15,2013-03-26 16:25:00,
2013-03-26 10:35:00,38.2,19.7,30.11,ESE,114,2.0,3.0,47,0.00,,,0.00,Wunderground v.1.15,2013-03-26 16:35:00,
2013-03-26 10:40:00,38.9,18.8,30.11,SSE,152,2.0,2.0,44,0.00,,,0.00,Wunderground v.1.15,2013-03-26 16:40:00,
2013-03-26 10:45:00,38.9,18.8,30.10,SE,130,3.0,3.0,44,0.00,,,0.00,Wunderground v.1.15,2013-03-26 16:45:00,
2013-03-26 10:50:00,38.8,19.8,30.10,SSE,153,2.0,4.0,46,0.00,,,0.00,Wunderground v.1.15,2013-03-26 16:50:00,
2013-03-26 10:55:00,39.1,20.5,30.10,South,188,2.0,4.0,47,0.00,,,0.00,Wunderground v.1.15,2013-03-26 16:55:00,
2013-03-26 11:00:00,39.0,20.5,30.10,ESE,111,3.0,4.0,47,0.00,,,0.00,Wunderground v.1.15,2013-03-26 17:00:00,
2013-03-26 11:05:00,38.4,20.4,30.10,SE,124,3.0,4.0,48,0.00,,,0.00,Wunderground v.1.15,2013-03-26 17:05:00,
2013-03-26 11:15:00,38.3,20.8,30.09,East,81,3.0,4.0,49,0.00,,,0.00,Wunderground v.1.15,2013-03-26 17:15:00,
2013-03-26 11:20:00,38.9,21.3,30.09,East,86,3.0,3.0,49,0.00,,,0.00,Wunderground v.1.15,2013-03-26 17:20:00,
2013-03-26 11:25:00,39.0,20.9,30.09,ENE,78,3.0,4.0,48,0.00,,,0.00,Wunderground v.1.15,2013-03-26 17:25:00,
2013-03-26 11:30:00,38.7,21.2,30.09,NE,51,4.0,5.0,49,0.00,,,0.00,Wunderground v.1.15,2013-03-26 17:30:00,
2013-03-26 11:35:00,38.8,21.7,30.08,SE,135,3.0,5.0,50,0.00,,,0.00,Wunderground v.1.15,2013-03-26 17:35:00,
2013-03-26 11:40:00,39.2,21.6,30.08,ENE,78,3.0,4.0,49,0.00,,,0.00,Wunderground v.1.15,2013-03-26 17:40:00,
2013-03-26 11:50:00,39.3,19.7,30.08,SSE,162,3.0,3.0,45,0.00,,,0.00,Wunderground v.1.15,2013-03-26 17:50:00,
2013-03-26 11:55:00,39.4,20.3,30.08,ESE,104,3.0,4.0,46,0.00,,,0.00,Wunderground v.1.15,2013-03-26 17:55:00,
2013-03-26 12:00:00,39.4,20.3,30.07,SE,124,3.0,3.0,46,0.00,,,0.00,Wunderground v.1.15,2013-03-26 18:00:00,
2013-03-26 12:05:00,39.3,20.7,30.07,SE,127,3.0,3.0,47,0.00,,,0.00,Wunderground v.1.15,2013-03-26 18:05:00,
2013-03-26 12:15:00,40.0,21.4,30.06,ESE,105,3.0,4.0,47,0.00,,,0.00,Wunderground v.1.15,2013-03-26 18:15:00,
2013-03-26 12:20:00,40.4,22.2,30.05,SE,129,2.0,2.0,48,0.00,,,0.00,Wunderground v.1.15,2013-03-26 18:20:00,
2013-03-26 12:30:00,41.7,22.9,30.05,WNW,287,2.0,2.0,47,0.00,,,0.00,Wunderground v.1.15,2013-03-26 18:30:00,
2013-03-26 12:35:00,42.4,24.6,30.05,SSW,205,2.0,2.0,49,0.00,,,0.01,Wunderground v.1.15,2013-03-26 18:35:00,
2013-03-26 12:40:00,43.2,23.3,30.05,East,94,2.0,2.0,45,0.09,,,0.02,Wunderground v.1.15,2013-03-26 18:40:00,
2013-03-26 12:45:00,43.5,25.6,30.04,SSE,148,2.0,2.0,49,0.09,,,0.03,Wunderground v.1.15,2013-03-26 18:45:00,
2013-03-26 12:50:00,43.9,24.4,30.04,South,188,3.0,4.0,46,0.09,,,0.03,Wunderground v.1.15,2013-03-26 18:50:00,
2013-03-26 12:55:00,44.1,24.1,30.04,SE,135,3.0,4.0,45,0.10,,,0.04,Wunderground v.1.15,2013-03-26 18:55:00,
2013-03-26 13:05:00,44.2,25.2,30.04,SE,124,3.0,3.0,47,0.04,,,0.04,Wunderground v.1.15,2013-03-26 19:05:00,
2013-03-26 13:15:00,44.9,25.3,30.04,NNE,32,2.0,3.0,46,0.00,,,0.04,Wunderground v.1.15,2013-03-26 19:15:00,
2013-03-26 13:20:00,44.2,25.2,30.03,NE,56,3.0,3.0,47,0.00,,,0.04,Wunderground v.1.15,2013-03-26 19:20:00,
2013-03-26 13:25:00,43.6,25.2,30.04,South,169,3.0,3.0,48,0.00,,,0.04,Wunderground v.1.15,2013-03-26 19:25:00,
2013-03-26 13:30:00,43.1,25.7,30.03,SE,126,3.0,3.0,50,0.00,,,0.04,Wunderground v.1.15,2013-03-26 19:30:00,
2013-03-26 13:40:00,43.3,25.4,30.02,SSE,150,3.0,3.0,49,0.00,,,0.04,Wunderground v.1.15,2013-03-26 19:40:00,
2013-03-26 13:45:00,43.4,26.0,30.02,SSE,156,3.0,3.0,50,0.00,,,0.04,Wunderground v.1.15,2013-03-26 19:45:00,
2013-03-26 13:50:00,43.8,25.9,30.02,ESE,110,3.0,3.0,49,0.00,,,0.04,Wunderground v.1.15,2013-03-26 19:50:00,
2013-03-26 13:55:00,43.8,25.9,30.01,SE,127,3.0,4.0,49,0.00,,,0.04,Wunderground v.1.15,2013-03-26 19:55:00,
2013-03-26 14:00:00,44.4,27.4,30.00,East,101,3.0,3.0,51,0.00,,,0.04,Wunderground v.1.15,2013-03-26 20:00:00,
2013-03-26 14:05:00,44.8,25.8,30.00,ENE,64,3.0,6.0,47,0.00,,,0.04,Wunderground v.1.15,2013-03-26 20:05:00,
2013-03-26 14:15:00,43.8,25.9,30.00,ESE,103,3.0,4.0,49,0.00,,,0.04,Wunderground v.1.15,2013-03-26 20:15:00,
2013-03-26 14:20:00,42.7,25.8,30.00,East,85,4.0,4.0,51,0.00,,,0.04,Wunderground v.1.15,2013-03-26 20:20:00,
2013-03-26 14:25:00,42.4,26.0,30.00,SE,133,4.0,4.0,52,0.00,,,0.04,Wunderground v.1.15,2013-03-26 20:25:00,
2013-03-26 14:30:00,42.4,25.1,29.99,SE,133,3.0,3.0,50,0.00,,,0.04,Wunderground v.1.15,2013-03-26 20:30:00,
2013-03-26 14:35:00,42.3,25.9,29.99,SE,130,3.0,3.0,52,0.00,,,0.04,Wunderground v.1.15,2013-03-26 20:35:00,
2013-03-26 14:40:00,42.2,25.8,29.99,SE,129,3.0,3.0,52,0.00,,,0.04,Wunderground v.1.15,2013-03-26 20:40:00,
2013-03-26 14:50:00,42.4,25.5,29.99,East,96,3.0,3.0,51,0.00,,,0.04,Wunderground v.1.15,2013-03-26 20:50:00,
2013-03-26 15:00:00,42.5,26.6,29.99,SSE,155,2.0,3.0,53,0.00,,,0.04,Wunderground v.1.15,2013-03-26 21:00:00,
2013-03-26 15:05:00,42.2,26.3,29.98,East,83,3.0,5.0,53,0.00,,,0.04,Wunderground v.1.15,2013-03-26 21:05:00,
2013-03-26 15:15:00,41.7,26.3,29.98,ENE,77,3.0,3.0,54,0.00,,,0.04,Wunderground v.1.15,2013-03-26 21:15:00,
2013-03-26 15:25:00,41.8,26.8,29.98,ESE,105,3.0,6.0,55,0.00,,,0.04,Wunderground v.1.15,2013-03-26 21:25:00,
2013-03-26 15:35:00,42.0,26.5,29.98,NE,54,3.0,4.0,54,0.00,,,0.04,Wunderground v.1.15,2013-03-26 21:35:00,
2013-03-26 15:40:00,42.1,26.6,29.98,SSE,163,2.0,2.0,54,0.00,,,0.04,Wunderground v.1.15,2013-03-26 21:40:00,
2013-03-26 15:45:00,42.3,27.3,29.98,SSE,153,2.0,2.0,55,0.00,,,0.04,Wunderground v.1.15,2013-03-26 21:45:00,
2013-03-26 15:50:00,43.0,27.9,29.98,SSE,165,1.0,1.0,55,0.00,,,0.04,Wunderground v.1.15,2013-03-26 21:50:00,
2013-03-26 15:55:00,42.9,26.5,29.98,ESE,117,1.0,1.0,52,0.00,,,0.04,Wunderground v.1.15,2013-03-26 21:55:00,
2013-03-26 16:00:00,42.9,26.9,29.98,SSE,147,1.0,2.0,53,0.00,,,0.04,Wunderground v.1.15,2013-03-26 22:00:00,
2013-03-26 16:05:00,42.7,27.2,29.97,SE,130,1.0,4.0,54,0.00,,,0.04,Wunderground v.1.15,2013-03-26 22:05:00,
2013-03-26 16:15:00,42.7,27.2,29.97,ESE,122,2.0,3.0,54,0.00,,,0.04,Wunderground v.1.15,2013-03-26 22:15:00,
2013-03-26 16:20:00,42.3,26.8,29.97,SSW,201,3.0,3.0,54,0.00,,,0.04,Wunderground v.1.15,2013-03-26 22:20:00,
2013-03-26 16:25:00,42.1,26.6,29.97,ENE,74,2.0,3.0,54,0.00,,,0.04,Wunderground v.1.15,2013-03-26 22:25:00,
2013-03-26 16:30:00,41.8,26.8,29.97,South,174,1.0,1.0,55,0.00,,,0.04,Wunderground v.1.15,2013-03-26 22:30:00,
2013-03-26 16:35:00,42.1,27.1,29.97,SSE,158,1.0,2.0,55,0.00,,,0.04,Wunderground v.1.15,2013-03-26 22:35:00,
2013-03-26 16:40:00,42.4,26.9,29.98,SSE,153,1.0,1.0,54,0.00,,,0.04,Wunderground v.1.15,2013-03-26 22:40:00,
2013-03-26 16:45:00,43.1,26.2,29.97,ESE,121,1.0,1.0,51,0.00,,,0.04,Wunderground v.1.15,2013-03-26 22:45:00,
2013-03-26 16:55:00,45.4,26.8,29.98,ESE,117,1.0,2.0,48,0.00,,,0.04,Wunderground v.1.15,2013-03-26 22:55:00,
2013-03-26 17:00:00,46.3,27.2,29.97,SSE,152,1.0,1.0,47,0.00,,,0.04,Wunderground v.1.15,2013-03-26 23:00:00,
2013-03-26 17:10:00,47.7,27.4,29.97,East,98,1.0,2.0,45,0.00,,,0.04,Wunderground v.1.15,2013-03-26 23:10:00,
2013-03-26 17:15:00,47.4,27.6,29.97,SSW,195,2.0,3.0,46,0.00,,,0.04,Wunderground v.1.15,2013-03-26 23:15:00,
2013-03-26 17:20:00,47.4,27.1,29.97,East,101,2.0,2.0,45,0.00,,,0.04,Wunderground v.1.15,2013-03-26 23:20:00,
2013-03-26 17:25:00,47.4,27.1,29.97,ESE,118,1.0,2.0,45,0.00,,,0.04,Wunderground v.1.15,2013-03-26 23:25:00,
2013-03-26 17:30:00,47.2,26.9,29.96,SW,217,1.0,2.0,45,0.00,,,0.04,Wunderground v.1.15,2013-03-26 23:30:00,
2013-03-26 17:35:00,47.3,27.5,29.96,SE,127,1.0,2.0,46,0.00,,,0.04,Wunderground v.1.15,2013-03-26 23:35:00,
2013-03-26 17:45:00,46.9,27.7,29.97,SSE,163,1.0,1.0,47,0.00,,,0.04,Wunderground v.1.15,2013-03-26 23:45:00,
2013-03-26 17:55:00,46.0,27.9,29.97,South,186,1.0,2.0,49,0.00,,,0.04,Wunderground v.1.15,2013-03-26 23:55:00,
2013-03-26 18:00:00,45.5,27.4,29.97,SSE,156,1.0,1.0,49,0.00,,,0.04,Wunderground v.1.15,2013-03-27 00:00:00,
2013-03-26 18:05:00,44.9,26.9,29.98,SE,127,1.0,1.0,49,0.00,,,0.04,Wunderground v.1.15,2013-03-27 00:05:00,
2013-03-26 18:15:00,44.0,26.5,29.98,ESE,104,1.0,1.0,50,0.00,,,0.04,Wunderground v.1.15,2013-03-27 00:15:00,
2013-03-26 18:20:00,43.5,27.0,29.99,SSW,197,1.0,1.0,52,0.00,,,0.04,Wunderground v.1.15,2013-03-27 00:20:00,
2013-03-26 18:25:00,42.9,27.4,29.98,East,90,0.0,1.0,54,0.00,,,0.04,Wunderground v.1.15,2013-03-27 00:25:00,
2013-03-26 18:30:00,42.1,26.6,29.98,ENE,65,1.0,1.0,54,0.00,,,0.04,Wunderground v.1.15,2013-03-27 00:30:00,
2013-03-26 18:35:00,41.3,26.8,29.99,ENE,65,1.0,1.0,56,0.00,,,0.04,Wunderground v.1.15,2013-03-27 00:35:00,
2013-03-26 18:40:00,40.9,26.8,29.99,ENE,65,1.0,1.0,57,0.00,,,0.04,Wunderground v.1.15,2013-03-27 00:40:00,
2013-03-26 18:45:00,40.6,27.0,29.99,ENE,74,1.0,1.0,58,0.00,,,0.04,Wunderground v.1.15,2013-03-27 00:45:00,
2013-03-26 18:55:00,40.0,26.8,30.00,NE,56,0.0,1.0,59,0.00,,,0.04,Wunderground v.1.15,2013-03-27 00:55:00,
2013-03-26 19:05:00,39.7,26.5,30.00,NE,56,1.0,1.0,59,0.00,,,0.04,Wunderground v.1.15,2013-03-27 01:05:00,
2013-03-26 19:15:00,39.4,27.1,30.01,NE,56,0.0,0.0,61,0.00,,,0.04,Wunderground v.1.15,2013-03-27 01:15:00,
2013-03-26 19:20:00,39.3,27.0,30.01,NE,56,0.0,0.0,61,0.00,,,0.04,Wunderground v.1.15,2013-03-27 01:20:00,
2013-03-26 19:30:00,39.0,27.5,30.01,NE,37,0.0,1.0,63,0.00,,,0.04,Wunderground v.1.15,2013-03-27 01:30:00,
2013-03-26 19:40:00,38.8,27.3,30.01,NE,37,0.0,0.0,63,0.00,,,0.04,Wunderground v.1.15,2013-03-27 01:40:00,
2013-03-26 19:45:00,38.7,27.6,30.01,NE,37,0.0,0.0,64,0.00,,,0.04,Wunderground v.1.15,2013-03-27 01:45:00,
2013-03-26 19:50:00,38.6,27.8,30.01,NE,37,0.0,0.0,65,0.00,,,0.04,Wunderground v.1.15,2013-03-27 01:50:00,
2013-03-26 19:55:00,38.6,27.5,30.01,NNW,328,1.0,2.0,64,0.00,,,0.04,Wunderground v.1.15,2013-03-27 01:55:00,
2013-03-26 20:00:00,39.1,27.9,30.02,West,277,1.0,1.0,64,0.00,,,0.04,Wunderground v.1.15,2013-03-27 02:00:00,
2013-03-26 20:05:00,38.9,28.1,30.01,WNW,283,1.0,1.0,65,0.00,,,0.04,Wunderground v.1.15,2013-03-27 02:05:00,
2013-03-26 20:15:00,38.1,28.5,30.02,SW,222,2.0,2.0,68,0.00,,,0.04,Wunderground v.1.15,2013-03-27 02:15:00,
2013-03-26 20:20:00,37.8,28.2,30.01,NE,39,2.0,2.0,68,0.00,,,0.04,Wunderground v.1.15,2013-03-27 02:20:00,
2013-03-26 20:25:00,37.9,28.6,30.02,NNW,348,1.0,2.0,69,0.00,,,0.04,Wunderground v.1.15,2013-03-27 02:25:00,
2013-03-26 20:30:00,38.1,28.5,30.02,NE,52,2.0,2.0,68,0.00,,,0.04,Wunderground v.1.15,2013-03-27 02:30:00,
2013-03-26 20:35:00,38.2,27.8,30.03,NNW,344,1.0,2.0,66,0.00,,,0.04,Wunderground v.1.15,2013-03-27 02:35:00,
2013-03-26 20:40:00,38.5,28.1,30.03,NE,51,1.0,1.0,66,0.00,,,0.04,Wunderground v.1.15,2013-03-27 02:40:00,
2013-03-26 20:45:00,38.6,27.8,30.03,ENE,78,1.0,2.0,65,0.00,,,0.04,Wunderground v.1.15,2013-03-27 02:45:00,
2013-03-26 20:55:00,38.5,27.7,30.03,East,82,1.0,1.0,65,0.00,,,0.04,Wunderground v.1.15,2013-03-27 02:55:00,
2013-03-26 21:00:00,38.5,27.7,30.04,NE,56,0.0,0.0,65,0.00,,,0.04,Wunderground v.1.15,2013-03-27 03:00:00,
2013-03-26 21:05:00,38.5,27.7,30.04,ENE,57,0.0,1.0,65,0.00,,,0.04,Wunderground v.1.15,2013-03-27 03:05:00,
2013-03-26 21:15:00,37.9,28.3,30.04,North,359,0.0,2.0,68,0.00,,,0.04,Wunderground v.1.15,2013-03-27 03:15:00,
2013-03-26 21:20:00,37.9,28.3,30.04,North,360,1.0,1.0,68,0.00,,,0.04,Wunderground v.1.15,2013-03-27 03:20:00,
2013-03-26 21:25:00,38.0,28.0,30.04,East,83,1.0,1.0,67,0.00,,,0.04,Wunderground v.1.15,2013-03-27 03:25:00,
2013-03-26 21:35:00,37.7,28.4,30.05,West,280,1.0,1.0,69,0.00,,,0.04,Wunderground v.1.15,2013-03-27 03:35:00,
2013-03-26 21:40:00,37.7,28.8,30.05,West,280,0.0,0.0,70,0.00,,,0.04,Wunderground v.1.15,2013-03-27 03:40:00,
2013-03-26 21:45:00,37.5,28.6,30.06,ENE,64,0.0,2.0,70,0.00,,,0.04,Wunderground v.1.15,2013-03-27 03:45:00,
2013-03-26 21:50:00,37.3,28.4,30.06,NE,53,1.0,1.0,70,0.00,,,0.04,Wunderground v.1.15,2013-03-27 03:50:00,
2013-03-26 21:55:00,37.4,28.5,30.07,ENE,60,1.0,2.0,70,0.00,,,0.04,Wunderground v.1.15,2013-03-27 03:55:00,
2013-03-26 22:00:00,37.6,28.3,30.07,ENE,72,1.0,1.0,69,0.00,,,0.04,Wunderground v.1.15,2013-03-27 04:00:00,
2013-03-26 22:05:00,37.7,27.0,30.07,ENE,78,1.0,1.0,65,0.00,,,0.04,Wunderground v.1.15,2013-03-27 04:05:00,
2013-03-26 22:15:00,37.9,26.4,30.07,East,82,1.0,2.0,63,0.00,,,0.04,Wunderground v.1.15,2013-03-27 04:15:00,
2013-03-26 22:20:00,37.9,26.4,30.07,East,82,1.0,1.0,63,0.00,,,0.04,Wunderground v.1.15,2013-03-27 04:20:00,
2013-03-26 22:25:00,37.9,26.0,30.06,East,82,1.0,1.0,62,0.00,,,0.04,Wunderground v.1.15,2013-03-27 04:25:00,
2013-03-26 22:30:00,37.9,25.6,30.06,East,82,0.0,0.0,61,0.00,,,0.04,Wunderground v.1.15,2013-03-27 04:30:00,
2013-03-26 22:35:00,37.8,25.5,30.06,East,82,0.0,0.0,61,0.00,,,0.04,Wunderground v.1.15,2013-03-27 04:35:00,
2013-03-26 22:40:00,37.9,25.6,30.06,East,82,0.0,0.0,61,0.00,,,0.04,Wunderground v.1.15,2013-03-27 04:40:00,
2013-03-26 22:50:00,37.6,25.4,30.07,East,82,0.0,0.0,61,0.00,,,0.04,Wunderground v.1.15,2013-03-27 04:50:00,
2013-03-26 22:55:00,37.5,25.7,30.07,East,82,0.0,0.0,62,0.00,,,0.04,Wunderground v.1.15,2013-03-27 04:55:00,
2013-03-26 23:00:00,37.5,25.7,30.07,East,82,0.0,0.0,62,0.00,,,0.04,Wunderground v.1.15,2013-03-27 05:00:00,
2013-03-26 23:05:00,37.4,25.9,30.06,East,82,0.0,0.0,63,0.00,,,0.04,Wunderground v.1.15,2013-03-27 05:05:00,
2013-03-26 23:15:00,37.1,27.2,30.07,East,82,0.0,0.0,67,0.00,,,0.04,Wunderground v.1.15,2013-03-27 05:15:00,
2013-03-26 23:20:00,36.6,27.0,30.06,South,191,0.0,0.0,68,0.00,,,0.04,Wunderground v.1.15,2013-03-27 05:20:00,
2013-03-26 23:30:00,36.5,25.5,30.06,WSW,253,0.0,1.0,64,0.00,,,0.04,Wunderground v.1.15,2013-03-27 05:30:00,
2013-03-26 23:35:00,36.7,26.4,30.06,West,269,0.0,1.0,66,0.00,,,0.04,Wunderground v.1.15,2013-03-27 05:35:00,
2013-03-26 23:40:00,36.2,26.6,30.06,West,269,0.0,0.0,68,0.00,,,0.04,Wunderground v.1.15,2013-03-27 05:40:00,
2013-03-26 23:50:00,35.2,26.0,30.06,West,270,0.0,0.0,69,0.00,,,0.04,Wunderground v.1.15,2013-03-27 05:50:00,
2013-03-26 23:55:00,34.9,26.4,30.06,West,269,0.0,0.0,71,0.00,,,0.04,Wunderground v.1.15,2013-03-27 05:55:00,